{"data":{"norad_id":49100,"epoch":"2026-09-19T13:07:30.703296Z","epoch_age_seconds":104353,"freshness":"FRESH","line1":"1 49100U 21075AB  26262.54688314  .00000033  00000+0  51552-4 0  9993","line2":"2 49100  87.9211 347.1231 0001763 112.5091 247.6227 13.17650763245999","mean_motion":13.17650763,"eccentricity":0.0001763,"inclination_deg":87.9211,"raan_deg":347.1231,"arg_perigee_deg":112.5091,"mean_anomaly_deg":247.6227,"bstar":5.1552e-5,"rev_number":24599,"period_min":109.28540706199,"perigee_km":1192.3715898257,"apogee_km":1195.0414218459,"semimajor_km":7571.8435058358,"source":"CELESTRAK","updated_at":"2026-09-20T09:00:44.657850Z"}}